Location: Oberwangen
(47.4286°N, 8.9679°E)
Time: 06:57:56
(UTC+00:00)

Cosmos 2173 Rocket - Pass Details

Date: 20 June 2021
Orbit: 945 x 1000 km, 83.0° (Epoch: 28 July)

Event Time Altitude Azimuth Distance (km) Brightness Sun altitude
Rises 20:07:30 0° 352° (N) 3,732 8.0 -6.3°
Reaches altitude 10° 20:10:04 10° 355° (N) 2,781 7.2 -6.6°
Maximum altitude 20:16:27 70° 79° (E) 1,065 4.1 -7.3°
Drops below altitude 10° 20:22:47 10° 163° (SSE) 2,757 5.8 -8.0°
Enters shadow 20:23:38 - 164° (SSE) 3,077 6.1 -8.1°
